Tracking 19164 objects as of 21-May-2018
HD Live streaming from Space Station
objects crossing your sky now

NOAA 16 DEB

Track NOAA 16 DEB now!
10-day predictions


NORAD ID: 41418
Int'l Code: 2000-055KX
Perigee: 797.7 km
Apogee: 855.8 km
Inclination: 99.0 °
Period: 101.3 minutes
Semi major axis: 7197 km
RCS: Unknown
Launch date: September 21, 2000
Source: United States (US)
Launch site: AIR FORCE WESTERN TEST RANGE (AFWTR)

Note: This is SATELLITE DEBRIS
aabbcc
Your satellite tracking list
Your tracking list is empty




NASA's NSSDC Master Catalog

Two Line Element Set (TLE):
1 41418U 00055KX  18139.05849891 +.00000924 +00000-0 +43789-3 0  9993
2 41418 098.9520 233.9997 0040390 044.7833 315.6592 14.21696794115478
Source of the keplerian elements: AFSPC